Location: Dallas
(32.7833°N, 96.8000°W)
Time: 15:28:13
(UTC-06:00)

OTV 4 - Pass Details

Date: 06 April 2017
Orbit: 320 x 337 km, 38.0° (Epoch: 25 April)

Event Time Altitude Azimuth Distance (km) Brightness Sun altitude
Exits shadow 06:01:06 36° 285° (WNW) 525 0.8 -14.6°
Maximum altitude 06:02:03 80° 202° (SSW) 328 0.1 -14.4°
Drops below altitude 10° 06:04:47 10° 116° (ESE) 1,219 3.8 -13.9°
Sets 06:06:46 0° 115° (ESE) 2,045 5.0 -13.5°
